Dickinson, ND

10:28 PM MST on January 20, 2018 (GMT -0700)
Dickinson Municipal

Weather History for KDIK - November, 2010

Change the Weather History Date:

Tuesday, November 30, 2010

  Actual Average Record
Temperature  
Mean Temperature 8 °F 22 °F  
Max Temperature 16 °F 33 °F 59 °F (1995)
Min Temperature 0 °F 12 °F -22 °F (1896)
Degree Days  
Heating Degree Days 57 43  
Month to date heating degree days 1108 1065  
Since 1 July heating degree days 1944 2077  
Cooling Degree Days 0 0  
Month to date cooling degree days 0 0  
Year to date cooling degree days 302 419  
Moisture  
Dew Point 7 °F    
Average Humidity 82    
Maximum Humidity 91    
Minimum Humidity 73    
Precipitation  
Precipitation T in 0.01 in 0.25 in (1897)
Month to date precipitation 0.33 0.54  
Year to date precipitation 13.95 15.53  
Sea Level Pressure  
Sea Level Pressure 30.16 in    
Wind  
Wind Speed 14 mph (WNW)    
Max Wind Speed 26 mph    
Max Gust Speed 30 mph    
Visibility 8 miles    
Events Snow    
T = Trace of Precipitation, MM = Missing Value Source: NWS Daily Summary

Daily Weather History Graph

Daily Weather History Graph

Search for Another Location

Airport or City:

Trip Planner

Search our weather history database for the weather conditions in past years. The results will help you decide how hot, cold, wet, or windy it might be!

Date:

Astronomy

Nov. 30, 2010 Rise Set
Actual Time 7:14 AM MST 4:05 PM MST
Civil Twilight 6:39 AM MST 4:39 PM MST
Nautical Twilight 6:01 AM MST 5:17 PM MST
Astronomical Twilight 5:25 AM MST 5:54 PM MST
Moon 1:15 AM MST (11/30) 12:52 PM MST (11/30)
Length of Visible Light 9h 59m
Length of Day
8h 50m
Waning Crescent, 29% of the Moon is Illuminated
Nov 30
Waning Crescent
Dec 5
New
Dec 13
First Quarter
Dec 21
Full
Dec 27
Last Quarter

Hourly Weather History & Observations

Time (MST) Temp. Windchill Dew Point Humidity Pressure Visibility Wind Dir Wind Speed Gust Speed Precip Events Conditions
12:56 AM 14.0 °F -2.5 °F 9.0 °F 80% 30.22 in 5.0 mi NW 17.3 mph - 0.00 in Snow Light Snow
1:56 AM 14.0 °F -3.4 °F 10.0 °F 84% 30.23 in 7.0 mi NW 19.6 mph 26.5 mph 0.00 in Snow Light Snow
2:56 AM 14.0 °F -3.4 °F 10.0 °F 84% 30.22 in 10.0 mi NW 19.6 mph 25.3 mph 0.00 in   Overcast
3:56 AM 15.1 °F -2.9 °F 10.0 °F 80% 30.20 in 8.0 mi NW 21.9 mph 28.8 mph 0.00 in Snow Light Snow
4:56 AM 15.1 °F -1.6 °F 10.9 °F 84% 30.21 in 9.0 mi NW 18.4 mph - 0.00 in Snow Light Snow
5:56 AM 15.1 °F -1.1 °F 10.0 °F 80% 30.22 in 6.0 mi NW 17.3 mph 25.3 mph 0.00 in Snow Light Snow
6:37 AM 14.0 °F -2.5 °F 10.4 °F 86% 30.08 in 8.0 mi NW 17.3 mph - 0.00 in Snow Light Snow
6:56 AM 15.1 °F -1.6 °F 10.0 °F 80% 30.22 in 5.0 mi NW 18.4 mph 23.0 mph 0.00 in Snow Light Snow
7:21 AM 14.0 °F -2.0 °F 10.4 °F 86% 30.07 in 6.0 mi WNW 16.1 mph - 0.00 in Snow Light Snow
7:56 AM 15.1 °F -1.6 °F 10.0 °F 80% 30.21 in 5.0 mi WNW 18.4 mph 23.0 mph 0.00 in Snow Light Snow
8:56 AM 14.0 °F -2.5 °F 10.0 °F 84% 30.21 in 4.0 mi WNW 17.3 mph - 0.00 in Snow Light Snow
9:36 AM 15.8 °F -0.2 °F 8.6 °F 73% 30.06 in 9.0 mi WNW 17.3 mph - 0.00 in   Scattered Clouds
9:51 AM 15.8 °F 0.3 °F 8.6 °F 73% 30.07 in 10.0 mi WNW 16.1 mph - 0.00 in   Mostly Cloudy
9:56 AM 14.0 °F -2.5 °F 9.0 °F 80% 30.22 in 10.0 mi WNW 17.3 mph - 0.00 in   Mostly Cloudy
10:42 AM 15.8 °F -0.2 °F 8.6 °F 73% 30.06 in 9.0 mi WNW 17.3 mph - 0.00 in Snow Light Snow
10:56 AM 15.1 °F -0.6 °F 9.0 °F 77% 30.19 in 10.0 mi WNW 16.1 mph - 0.00 in   Mostly Cloudy
11:17 AM 15.8 °F -0.6 °F 8.6 °F 73% 30.05 in 10.0 mi WNW 18.4 mph - N/A   Scattered Clouds
11:41 AM 15.8 °F 0.9 °F 8.6 °F 73% 30.05 in 10.0 mi WNW 15.0 mph - N/A   Partly Cloudy
11:56 AM 16.0 °F 0.6 °F 10.0 °F 77% 30.19 in 9.0 mi WNW 16.1 mph - N/A   Scattered Clouds
12:07 PM 15.8 °F -1.1 °F 8.6 °F 73% 30.05 in 10.0 mi NW 19.6 mph - N/A   Mostly Cloudy
12:18 PM 15.8 °F -0.6 °F 10.4 °F 79% 30.05 in 8.0 mi NW 18.4 mph - 0.00 in Snow Light Snow
12:56 PM 16.0 °F 1.1 °F 10.0 °F 77% 30.18 in 5.0 mi NW 15.0 mph - 0.00 in Snow Light Snow
1:56 PM 14.0 °F 0.5 °F 8.1 °F 77% 30.19 in 10.0 mi NW 11.5 mph - 0.00 in   Scattered Clouds
2:09 PM 15.8 °F 2.7 °F 8.6 °F 73% 30.05 in 10.0 mi NW 11.5 mph - N/A   Mostly Cloudy
2:56 PM 14.0 °F -2.5 °F 8.1 °F 77% 30.20 in 9.0 mi NW 17.3 mph - N/A   Partly Cloudy
3:56 PM 10.0 °F 0.4 °F 6.1 °F 84% 30.22 in 10.0 mi NW 5.8 mph - N/A   Clear
4:56 PM 8.1 °F -7.0 °F 3.9 °F 83% 30.21 in 10.0 mi WNW 11.5 mph - N/A   Clear
5:56 PM 5.0 °F -5.6 °F 1.9 °F 87% 30.21 in 10.0 mi WNW 5.8 mph - N/A   Clear
6:56 PM 3.9 °F -11.3 °F 1.0 °F 88% 30.21 in 10.0 mi West 10.4 mph - N/A   Clear
7:56 PM 7.0 °F -7.5 °F 3.0 °F 84% 30.21 in 10.0 mi West 10.4 mph - N/A   Clear
9:56 PM 7.0 °F 0.1 °F 3.9 °F 87% 30.18 in 10.0 mi SW 3.5 mph - N/A   Partly Cloudy
10:56 PM 1.0 °F -8.7 °F -2.0 °F 87% 30.19 in 10.0 mi SSW 4.6 mph - N/A   Clear
11:27 PM 1.4 °F -8.3 °F -2.2 °F 85% 30.02 in 8.0 mi SW 4.6 mph - N/A   Partly Cloudy
11:56 PM 1.0 °F -8.7 °F -2.0 °F 87% 30.17 in 10.0 mi WSW 4.6 mph - N/A   Clear